Location: Newark
(13.6797°N, 8.5297°E)
Time: 18:43:37
(UTC+00:00)

Courier 1B Rocket - Pass Details

Date: 26 January 2020
Orbit: 920 x 1202 km, 28.2° (Epoch: 25 February)

Event Time Altitude Azimuth Distance (km) Brightness Sun altitude
Rises 09:44:50 0° 263° (W) 4,054 8.0 47.2°
Reaches altitude 10° 09:47:53 10° 269° (W) 3,064 7.4 47.6°
Maximum altitude 09:55:03 44° 340° (NNW) 1,492 6.1 48.7°
Drops below altitude 10° 10:01:47 10° 51° (NE) 2,879 7.6 49.8°
Sets 10:04:34 0° 58° (ENE) 3,789 8.1 50.2°
